PY2FGD-13 Weather Reports


time (UTC)temp
C
wind
direction
speed
KPH
gust
KPH
rain 1hr
cm
rain 24hr
cm
rain mn
cm
humidity
%
barometer
mb
20260509200756 23 0.0 0.0 0.00 0.00 0.00 76 1014.4
20260509195756 22 0.0 0.0 0.00 0.00 0.00 75 1014.5
20260509194814 22 0.0 0.0 0.00 0.00 0.00 73 1013.6
20260509193756 22 0.0 0.0 0.00 0.00 0.00 76 1014.1
20260509192755 21 0.0 0.0 0.00 0.00 0.00 75 1014.0
20260509191755 22 0.0 0.0 0.00 0.00 0.00 75 1013.7
20260509190756 22 0.0 0.0 0.00 0.00 0.00 76 1013.8
20260509185755 22 0.0 0.0 0.00 0.00 0.00 78 1014.1
20260509184811 22 0.0 0.0 0.00 0.00 0.00 77 1013.9
20260509183811 22 0.0 0.0 0.00 0.00 0.00 79 1013.7
20260509182756 23 0.0 0.0 0.00 0.00 0.00 77 1013.5
20260509181756 23 0.0 0.0 0.00 0.00 0.00 77 1013.2
20260509180756 23 0.0 0.0 0.00 0.00 0.00 77 1013.2
20260509175756 23 0.0 0.0 0.00 0.00 0.00 77 1013.0
20260509174757 23 0.0 0.0 0.00 0.00 0.00 77 1013.0
20260509173756 23 0.0 0.0 0.00 0.00 0.00 76 1013.2
20260509172756 23 0.0 0.0 0.00 0.00 0.00 75 1013.1
20260509171756 23 0.0 0.0 0.00 0.00 0.00 75 1013.0
20260509170811 23 0.0 0.0 0.00 0.00 0.00 75 1013.0
20260509165756 23 0.0 0.0 0.00 0.00 0.00 75 1013.2
20260509164831 23 0.0 0.0 0.00 0.00 0.00 76 1013.5
20260509163811 23 0.0 0.0 0.00 0.00 0.00 76 1013.4
20260509162756 23 0.0 0.0 0.00 0.00 0.00 78 1013.7
20260509161756 23 0.0 0.0 0.00 0.00 0.00 77 1013.8
20260509160756 23 0.0 0.0 0.00 0.00 0.00 77 1013.9
20260509155755 23 0.0 0.0 0.00 0.00 0.00 75 1013.9
20260509154755 23 0.0 0.0 0.00 0.00 0.00 72 1014.1
20260509153811 23 0.0 0.0 0.00 0.00 0.00 73 1014.4
20260509152755 23 0.0 0.0 0.00 0.00 0.00 71 1014.7
20260509151755 23 0.0 0.0 0.00 0.00 0.00 73 1014.7
20260509150755 23 0.0 0.0 0.00 0.00 0.00 75 1015.0
20260509145756 23 0.0 0.0 0.00 0.00 0.00 75 1015.3
20260509144755 23 0.0 0.0 0.00 0.00 0.00 76 1015.4
20260509143755 23 0.0 0.0 0.00 0.00 0.00 75 1015.6
20260509142756 23 0.0 0.0 0.00 0.00 0.00 76 1015.6
20260509141756 23 0.0 0.0 0.00 0.00 0.00 76 1015.6
20260509140756 23 0.0 0.0 0.00 0.00 0.00 76 1015.7
20260509135756 22 0.0 0.0 0.00 0.00 0.00 76 1015.7
20260509134755 22 0.0 0.0 0.00 0.00 0.00 77 1015.9
20260509133755 22 0.0 0.0 0.00 0.00 0.00 77 1015.9
20260509132756 22 0.0 0.0 0.00 0.00 0.00 78 1016.0
20260509131812 22 0.0 0.0 0.00 0.00 0.00 78 1016.0
20260509130755 22 0.0 0.0 0.00 0.00 0.00 79 1016.0
20260509125756 22 0.0 0.0 0.00 0.00 0.00 79 1015.9
20260509124755 22 0.0 0.0 0.00 0.00 0.00 80 1016.0
20260509123755 22 0.0 0.0 0.00 0.00 0.00 80 1015.9
20260509122756 23 0.0 0.0 0.00 0.00 0.00 74 1015.4
20260509121755 23 0.0 0.0 0.00 0.00 0.00 75 1015.1
20260509120755 23 0.0 0.0 0.00 0.00 0.00 75 1015.0
20260509115755 23 0.0 0.0 0.00 0.00 0.00 75 1014.7
20260509114757 23 0.0 0.0 0.00 0.00 0.00 75 1014.6
20260509113756 23 0.0 0.0 0.00 0.00 0.00 75 1014.4
20260509112755 23 0.0 0.0 0.00 0.00 0.00 76 1014.2
20260509111755 23 0.0 0.0 0.00 0.00 0.00 76 1014.1
20260509110811 21 0.0 0.0 0.00 0.00 0.00 84 1014.5
20260509105755 21 0.0 0.0 0.00 0.00 0.00 86 1014.3
20260509104755 21 0.0 0.0 0.00 0.00 0.00 85 1014.2
20260509103755 23 0.0 0.0 0.00 0.00 0.00 78 1013.6
20260509102755 23 0.0 0.0 0.00 0.00 0.00 78 1013.5
20260509101755 23 0.0 0.0 0.00 0.00 0.00 77 1013.4
20260509100755 23 0.0 0.0 0.00 0.00 0.00 77 1013.1
20260509095755 23 0.0 0.0 0.00 0.00 0.00 77 1012.8
20260509094755 23 0.0 0.0 0.00 0.00 0.00 78 1012.5
20260509093755 23 0.0 0.0 0.00 0.00 0.00 77 1012.5
20260509092756 23 0.0 0.0 0.00 0.00 0.00 77 1012.2
20260509091811 23 0.0 0.0 0.00 0.00 0.00 77 1012.2
20260509090755 23 0.0 0.0 0.00 0.00 0.00 78 1012.0
20260509085755 23 0.0 0.0 0.00 0.00 0.00 77 1011.5
20260509084755 23 0.0 0.0 0.00 0.00 0.00 78 1011.2
20260509083755 23 0.0 0.0 0.00 0.00 0.00 77 1011.2
20260509082757 23 0.0 0.0 0.00 0.00 0.00 77 1011.2
20260509081755 23 0.0 0.0 0.00 0.00 0.00 78 1011.1
20260509080755 23 0.0 0.0 0.00 0.00 0.00 77 1010.5
20260509075757 23 0.0 0.0 0.00 0.00 0.00 78 1010.8
20260509074754 23 0.0 0.0 0.00 0.00 0.00 79 1010.7
20260509073754 23 0.0 0.0 0.00 0.00 0.00 79 1010.8
20260509072754 23 0.0 0.0 0.00 0.00 0.00 80 1010.9
20260509071755 23 0.0 0.0 0.00 0.00 0.00 80 1011.1
20260509070755 23 0.0 0.0 0.00 0.00 0.00 81 1011.1
20260509065755 23 0.0 0.0 0.00 0.00 0.00 81 1011.3
20260509064754 23 0.0 0.0 0.00 0.00 0.00 82 1011.4
20260509063755 23 0.0 0.0 0.00 0.00 0.00 82 1011.7
20260509062755 23 0.0 0.0 0.00 0.00 0.00 83 1011.6
20260509061755 23 0.0 0.0 0.00 0.00 0.00 83 1011.7
20260509060755 23 0.0 0.0 0.00 0.00 0.00 82 1011.5
20260509055755 23 0.0 0.0 0.00 0.00 0.00 83 1011.4
20260509054756 23 0.0 0.0 0.00 0.00 0.00 83 1011.4
20260509053810 23 0.0 0.0 0.00 0.00 0.00 84 1011.5
20260509052755 23 0.0 0.0 0.00 0.00 0.00 84 1011.5
20260509051755 23 0.0 0.0 0.00 0.00 0.00 84 1011.5
20260509050754 23 0.0 0.0 0.00 0.00 0.00 84 1011.5
20260509045756 23 0.0 0.0 0.00 0.00 0.00 85 1011.5
20260509044755 24 0.0 0.0 0.00 0.00 0.00 85 1011.6
20260509043754 24 0.0 0.0 0.00 0.00 0.00 85 1011.5
20260509042754 24 0.0 0.0 0.00 0.00 0.00 84 1011.5
20260509041754 24 0.0 0.0 0.00 0.00 0.00 85 1011.4
20260509040810 24 0.0 0.0 0.00 0.00 0.00 85 1011.2
20260509035755 24 0.0 0.0 0.00 0.00 0.00 85 1011.4
20260509034754 24 0.0 0.0 0.00 0.00 0.00 85 1011.5
20260509033810 24 0.0 0.0 0.00 0.00 0.00 84 1010.9
20260509032754 24 0.0 0.0 0.00 0.00 0.00 82 1010.9
20260509031755 24 0.0 0.0 0.00 0.00 0.00 75 1010.9
20260509030754 23 0.0 0.0 0.00 0.00 0.00 74 1010.9
20260509025754 23 0.0 0.0 0.00 0.00 0.00 74 1010.9
20260509024755 23 0.0 0.0 0.00 0.00 0.00 74 1011.0
20260509023754 24 0.0 0.0 0.00 0.00 0.00 73 1011.0
20260509022754 23 0.0 0.0 0.00 0.00 0.00 73 1011.1
20260509021755 23 0.0 0.0 0.00 0.00 0.00 74 1011.2
20260509020754 23 0.0 0.0 0.00 0.00 0.00 73 1011.2
20260509015754 23 0.0 0.0 0.00 0.00 0.00 73 1011.5
20260509014754 23 0.0 0.0 0.00 0.00 0.00 72 1011.3
20260509013754 22 0.0 0.0 0.00 0.00 0.00 76 1011.9
20260509012815 22 0.0 0.0 0.00 0.00 0.00 78 1012.0
20260509011754 22 0.0 0.0 0.00 0.00 0.00 76 1011.8
20260509010754 22 0.0 0.0 0.00 0.00 0.00 75 1012.0
20260509005754 22 0.0 0.0 0.00 0.00 0.00 75 1011.7
20260509004754 22 0.0 0.0 0.00 0.00 0.00 75 1011.7
20260509003812 22 0.0 0.0 0.00 0.00 0.00 74 1011.5
20260509002811 22 0.0 0.0 0.00 0.00 0.00 74 1011.6
20260509001754 22 0.0 0.0 0.00 0.00 0.00 74 1011.6
20260509000755 22 0.0 0.0 0.00 0.00 0.00 73 1011.4
20260508235810 22 0.0 0.0 0.00 0.00 0.00 73 1011.3
20260508234754 22 0.0 0.0 0.00 0.00 0.00 72 1011.2
20260508233755 23 0.0 0.0 0.00 0.00 0.00 71 1011.1
20260508232754 23 0.0 0.0 0.00 0.00 0.00 70 1011.0
20260508231754 23 0.0 0.0 0.00 0.00 0.00 69 1010.9
20260508230755 23 0.0 0.0 0.00 0.00 0.00 67 1011.0
20260508225754 23 0.0 0.0 0.00 0.00 0.00 66 1010.7
20260508224809 23 0.0 0.0 0.00 0.00 0.00 67 1010.6
20260508223810 23 0.0 0.0 0.00 0.00 0.00 66 1010.6
20260508222754 23 0.0 0.0 0.00 0.00 0.00 67 1010.5
20260508221754 23 0.0 0.0 0.00 0.00 0.00 68 1010.5
20260508220801 23 0.0 0.0 0.00 0.00 0.00 68 1010.5
20260508215754 23 0.0 0.0 0.00 0.00 0.00 67 1010.4
20260508214754 23 0.0 0.0 0.00 0.00 0.00 67 1010.2
20260508213754 24 0.0 0.0 0.00 0.00 0.00 66 1010.0
20260508212754 24 0.0 0.0 0.00 0.00 0.00 64 1009.9
20260508211754 24 0.0 0.0 0.00 0.00 0.00 65 1009.9
20260508210754 24 0.0 0.0 0.00 0.00 0.00 65 1010.0
20260508205754 24 0.0 0.0 0.00 0.00 0.00 64 1010.0
20260508204756 24 0.0 0.0 0.00 0.00 0.00 64 1010.1
20260508203754 24 0.0 0.0 0.00 0.00 0.00 64 1010.0
20260508202754 24 0.0 0.0 0.00 0.00 0.00 63 1010.0
20260508201753 24 0.0 0.0 0.00 0.00 0.00 63 1009.9